KLM55T TBPB-TTPP

Flight info

Callsign KLM55T
Flight time N/A
Altitude 26000
Route BGI UR515 TAB DCT NAPKO DCT LEXOR DCT TALUS
Aircraft A20N/M-SDE2E3FGHIRWXY/LB1

Departure

Time 2026-05-06 00:41
Airport Grantley Adams International Airport (TBPB)

Arrival

Time N/A
Airport Piarco International Airport (TTPP)
Time Latitude Longitude Altitude Speed Heading
2026-05-06 00:27 13.07748 -59.48938 170 ft 2 kts 323°
2026-05-06 00:28 13.07735 -59.48927 170 ft 2 kts 313°
2026-05-06 00:28 13.07725 -59.48914 170 ft 2 kts 296°
2026-05-06 00:28 13.07720 -59.48898 170 ft 2 kts 271°
2026-05-06 00:28 13.07721 -59.48886 169 ft 1 kts 258°
2026-05-06 00:29 13.07721 -59.48884 169 ft 1 kts 257°
2026-05-06 00:29 13.07717 -59.48903 170 ft 4 kts 257°
2026-05-06 00:29 13.07707 -59.48946 170 ft 8 kts 257°
2026-05-06 00:29 13.07703 -59.48966 170 ft 0 kts 257°
2026-05-06 00:30 13.07690 -59.49000 170 ft 11 kts 247°
2026-05-06 00:31 13.07666 -59.49067 170 ft 19 kts 252°
2026-05-06 00:31 13.07625 -59.49232 171 ft 27 kts 256°
2026-05-06 00:31 13.07576 -59.49433 171 ft 31 kts 256°
2026-05-06 00:31 13.07527 -59.49626 171 ft 29 kts 253°
2026-05-06 00:32 13.07481 -59.49833 172 ft 31 kts 254°
2026-05-06 00:32 13.07431 -59.50027 172 ft 29 kts 256°
2026-05-06 00:32 13.07381 -59.50231 173 ft 31 kts 253°
2026-05-06 00:32 13.07325 -59.50453 173 ft 33 kts 256°
2026-05-06 00:33 13.07273 -59.50676 173 ft 23 kts 255°
2026-05-06 00:33 13.07218 -59.50733 173 ft 0 kts 176°
2026-05-06 00:36 13.07219 -59.50733 173 ft 0 kts 176°
2026-05-06 00:39 13.07158 -59.50721 173 ft 14 kts 167°
2026-05-06 00:39 13.07104 -59.50662 174 ft 9 kts 62°
2026-05-06 00:39 13.07118 -59.50632 173 ft 0 kts 79°
2026-05-06 00:40 13.07144 -59.50521 174 ft 55 kts 77°
2026-05-06 00:40 13.07303 -59.49863 175 ft 131 kts 76°
2026-05-06 00:40 13.07562 -59.48831 555 ft 165 kts 77°
2026-05-06 00:41 13.07850 -59.47562 960 ft 196 kts 84°
2026-05-06 00:41 13.07608 -59.46206 1963 ft 200 kts 117°
2026-05-06 00:41 13.06591 -59.45185 2787 ft 220 kts 149°
2026-05-06 00:41 13.05008 -59.44825 3456 ft 251 kts 180°
2026-05-06 00:42 13.03229 -59.45348 3991 ft 285 kts 207°
2026-05-06 00:42 13.01655 -59.46769 4338 ft 322 kts 232°
2026-05-06 00:42 13.00627 -59.48938 4635 ft 355 kts 251°
2026-05-06 00:42 12.99842 -59.51348 4891 ft 367 kts 246°
2026-05-06 00:43 12.98640 -59.53554 5153 ft 340 kts 232°
2026-05-06 00:43 12.97171 -59.55300 5401 ft 308 kts 221°
2026-05-06 00:43 12.95641 -59.56686 5655 ft 280 kts 216°
2026-05-06 00:43 12.94060 -59.57908 5935 ft 287 kts 213°
2026-05-06 00:44 12.92430 -59.59080 6194 ft 284 kts 211°
2026-05-06 00:44 12.90796 -59.60222 6571 ft 290 kts 211°
2026-05-06 00:44 12.89121 -59.61389 7533 ft 290 kts 211°
2026-05-06 00:44 12.88576 -59.61770 7838 ft 292 kts 211°